Content
SEND FEEDBACK

Daily
Averages
Monthly
Summary
French Polynesia

PAPEETE, FRENCH POLYNESIA


Home > Oceania > French Polynesia
Elevation: 7 feet     Latitude: 17 33S     Longitude: 149 36W

WEATHER
 
SELECT A DAY
Number of Records: 217,668;   Date Range: 6/30/96 - 12/23/14
 
SHARE

PRINT THIS DATA

[ ← Previous Day ]
WEATHER ALMANAC - JANUARY 30, 2014
[ Next Day → ]
[ °C ]   °F
Weather ElementAverageHighLow
Temperature82 °F88 °F (11:00 am)75.2 °F (6:00 am)
Dewpoint70.5 °F73.4 °F (12:00 pm)66.2 °F (10:30 am)
Humidity67.3 %83 % (6:00 am)48 % (11:00 am)
Barometer29.87 in29.92 in (8:00 am)29.83 in (1:30 pm)
Wind Speed4.7 mph12.7 mph (10:30 am)
Wind Gust23 mph (2:30 pm)
Weather ElementAverage
Visibility8 mi
Wind DirectionNE (44.4 °)

Weather ElementTotal
Precipitation---
Cooling Degree Days16.6 (Base 65)
Growing Degree Days31.6 (Base 50)
Averaged from 55 records on January 30, 2014
WEATHER CONDITIONS BREAKOUT
WIND DIRECTION BREAKOUT
WEATHER BY HOUR - JANUARY 30, 2014
[ °C ]   °F
Local TimeTemperatureDewpointHumidityBarometerVisibilityWind DirectionWind SpeedGust SpeedPrecipitationEventsConditions
12:30 AM77.0 °F69.8 °F78 %29.89 in6.2 miVariable1.2 mphPartly Cloudy
1:00 AM77.0 °F69.8 °F78 %29.86 in6.2 miSE (140°)2.3 mphPartly Cloudy
1:30 AM78.8 °F69.8 °F74 %29.86 in6.2 miVariable2.3 mphPartly Cloudy
2:00 AM78.0 °F70.0 °F71 %29.87 in16.0 miSE (140°)2.3 mphScattered Clouds
2:00 AM77.0 °F69.8 °F78 %29.86 in6.2 miVariable2.3 mphPartly Cloudy
2:30 AM77.0 °F69.8 °F78 %29.86 in6.2 miVariable2.3 mphPartly Cloudy
3:00 AM77.0 °F69.8 °F78 %29.86 in6.2 miSouth (190°)4.6 mphPartly Cloudy
3:30 AM77.0 °F69.8 °F78 %29.86 in6.2 miCalmScattered Clouds
4:00 AM77.0 °F69.8 °F78 %29.86 in6.2 miCalmPartly Cloudy
4:30 AM77.0 °F69.8 °F78 %29.86 in6.2 miESE (120°)3.5 mph
5:00 AM77.0 °F70.0 °F72 %29.88 in37.0 miSE (130°)2.3 mphClear
5:00 AM77.0 °F69.8 °F78 %29.86 in6.2 miVariable2.3 mph
5:30 AM77.0 °F69.8 °F78 %29.89 in6.2 miCalm
6:00 AM75.2 °F69.8 °F83 %29.89 in6.2 miCalmPartly Cloudy
6:30 AM77.0 °F69.8 °F78 %29.89 in6.2 miESE (110°)2.3 mphPartly Cloudy
7:00 AM80.6 °F71.6 °F74 %29.89 in6.2 miVariable2.3 mphPartly Cloudy
7:30 AM80.6 °F68.0 °F65 %29.89 in6.2 miENE (60°)6.9 mphPartly Cloudy
8:00 AM83.0 °F70.0 °F57 %29.92 in19.0 miNNE (20°)4.6 mphPartly Cloudy
8:00 AM84.2 °F69.8 °F62 %29.92 in6.2 miNNE (20°)4.6 mphPartly Cloudy
8:30 AM84.2 °F69.8 °F62 %29.89 in6.2 miNNE (30°)4.6 mphPartly Cloudy
9:00 AM84.2 °F69.8 °F62 %29.89 in6.2 miCalmPartly Cloudy
9:30 AM86.0 °F71.6 °F62 %29.92 in6.2 miSW (230°)3.5 mphPartly Cloudy
10:00 AM87.8 °F71.6 °F58 %29.89 in6.2 miNE (40°)11.5 mphPartly Cloudy
10:30 AM87.8 °F66.2 °F49 %29.89 in6.2 miENE (60°)12.7 mphPartly Cloudy
11:00 AM88.0 °F71.0 °F48 %29.90 in19.0 miENE (60°)10.4 mphScattered Clouds
11:00 AM87.8 °F71.6 °F58 %29.89 in6.2 miENE (60°)10.4 mphPartly Cloudy
11:30 AM87.8 °F71.6 °F58 %29.89 in6.2 miENE (60°)9.2 mphPartly Cloudy
12:00 PM87.8 °F73.4 °F62 %29.89 in6.2 miNE (50°)9.2 mphPartly Cloudy
12:30 PM87.8 °F71.6 °F58 %29.86 in6.2 miVariable5.8 mphPartly Cloudy
1:00 PM87.8 °F73.4 °F62 %29.86 in6.2 miVariable8.1 mphPartly Cloudy
1:30 PM87.8 °F71.6 °F58 %29.83 in6.2 miVariable8.1 mph20.7 mphPartly Cloudy
2:00 PM87.0 °F73.0 °F54 %29.85 in19.0 miENE (60°)12.7 mphPartly Cloudy
2:00 PM86.0 °F73.4 °F66 %29.83 in6.2 miENE (60°)12.7 mphPartly Cloudy
2:30 PM86.0 °F71.6 °F62 %29.83 in6.2 miVariable9.2 mph23.0 mphPartly Cloudy
3:00 PM86.0 °F71.6 °F62 %29.83 in6.2 miSSW (200°)5.8 mphPartly Cloudy
3:30 PM86.0 °F71.6 °F62 %29.83 in6.2 miVariable2.3 mphPartly Cloudy
4:00 PM86.0 °F71.6 °F62 %29.83 in6.2 miVariable5.8 mphScattered Clouds
4:30 PM84.2 °F71.6 °F66 %29.83 in6.2 miVariable6.9 mph21.9 mphScattered Clouds
5:00 PM86.0 °F71.0 °F51 %29.83 in16.0 miNE (50°)8.1 mphPartly Cloudy
5:00 PM86.0 °F69.8 °F58 %29.83 in6.2 miNE (50°)8.1 mphScattered Clouds
5:30 PM84.2 °F69.8 °F62 %29.83 in6.2 miENE (60°)11.5 mphScattered Clouds
6:00 PM82.4 °F69.8 °F66 %29.83 in6.2 miENE (70°)8.1 mphScattered Clouds
6:30 PM82.4 °F71.6 °F70 %29.83 in6.2 miVariable2.3 mphPartly Cloudy
7:00 PM82.4 °F71.6 °F70 %29.86 in6.2 miNE (40°)3.5 mphPartly Cloudy
7:30 PM82.4 °F69.8 °F66 %29.86 in6.2 miVariable2.3 mphPartly Cloudy
8:00 PM81.0 °F71.0 °F64 %29.88 in12.0 miEast (100°)3.5 mphScattered Clouds
8:00 PM80.6 °F71.6 °F74 %29.86 in6.2 miEast (100°)3.5 mphPartly Cloudy
8:30 PM80.6 °F69.8 °F70 %29.86 in6.2 miVariable1.2 mphPartly Cloudy
9:00 PM80.6 °F69.8 °F70 %29.89 in6.2 miCalmPartly Cloudy
9:30 PM78.8 °F69.8 °F74 %29.89 in6.2 miVariable3.5 mphPartly Cloudy
10:00 PM78.8 °F69.8 °F74 %29.89 in6.2 miENE (70°)2.3 mphPartly Cloudy
10:30 PM78.8 °F69.8 °F74 %29.89 in6.2 miVariable2.3 mphPartly Cloudy
11:00 PM79.0 °F70.0 °F66 %29.89 in12.0 miENE (60°)2.3 mphScattered Clouds
11:00 PM78.8 °F69.8 °F74 %29.89 in6.2 miVariable2.3 mphPartly Cloudy
11:30 PM78.8 °F69.8 °F74 %29.89 in6.2 miCalmPartly Cloudy
Hourly data recorded from NTAA, located miles away from Papeete, French Polynesia







STORIES FROM OUR PARTNERS